AXY52B YBCS-WAJJ

Flight info

Callsign AXY52B
Flight time 2h 22m
Altitude 38000
Route DCT AVDAN R204 HID DCT MKE W66 UPNUM/N0476F370 W66 IDINA IDINA2B
Aircraft A346/H-SDE2E3FGHIJ3J4J5M1RWXY/LB1D1

Departure

Time 2026-05-07 13:23
Airport Cairns International Airport (YBCS)

Arrival

Time 2026-05-07 15:45
Airport Dortheys Hiyo Eluay International Airport (WAJJ)
Time Latitude Longitude Altitude Speed Heading
2026-05-07 12:50 -16.87132 145.75628 22 ft 0 kts 154°
2026-05-07 13:09 -16.87126 145.75624 4 ft 3 kts 154°
2026-05-07 13:09 -16.87106 145.75612 10 ft 4 kts 136°
2026-05-07 13:09 -16.87095 145.75596 10 ft 4 kts 101°
2026-05-07 13:09 -16.87097 145.75575 8 ft 4 kts 69°
2026-05-07 13:10 -16.87108 145.75549 10 ft 4 kts 65°
2026-05-07 13:10 -16.87113 145.75538 11 ft 1 kts 66°
2026-05-07 13:10 -16.87114 145.75537 11 ft 0 kts 66°
2026-05-07 13:12 -16.87113 145.75539 11 ft 1 kts 66°
2026-05-07 13:12 -16.87096 145.75563 10 ft 6 kts 41°
2026-05-07 13:12 -16.87050 145.75570 8 ft 8 kts 340°
2026-05-07 13:13 -16.87021 145.75518 5 ft 9 kts 267°
2026-05-07 13:13 -16.87046 145.75445 7 ft 12 kts 249°
2026-05-07 13:13 -16.87066 145.75394 9 ft 7 kts 246°
2026-05-07 13:13 -16.87090 145.75338 9 ft 10 kts 246°
2026-05-07 13:14 -16.87118 145.75268 6 ft 10 kts 246°
2026-05-07 13:14 -16.87146 145.75201 8 ft 8 kts 246°
2026-05-07 13:14 -16.87168 145.75150 7 ft 9 kts 245°
2026-05-07 13:14 -16.87192 145.75092 6 ft 9 kts 246°
2026-05-07 13:15 -16.87219 145.75027 6 ft 11 kts 246°
2026-05-07 13:15 -16.87248 145.74958 7 ft 9 kts 246°
2026-05-07 13:15 -16.87267 145.74901 4 ft 9 kts 265°
2026-05-07 13:15 -16.87231 145.74848 4 ft 11 kts 331°
2026-05-07 13:16 -16.87171 145.74820 8 ft 10 kts 336°
2026-05-07 13:16 -16.87107 145.74791 7 ft 7 kts 336°
2026-05-07 13:16 -16.87063 145.74764 9 ft 7 kts 315°
2026-05-07 13:16 -16.87048 145.74727 9 ft 4 kts 271°
2026-05-07 13:17 -16.87049 145.74721 9 ft 0 kts 255°
2026-05-07 13:21 -16.87051 145.74714 8 ft 3 kts 255°
2026-05-07 13:21 -16.87060 145.74681 5 ft 7 kts 251°
2026-05-07 13:21 -16.87081 145.74625 4 ft 7 kts 247°
2026-05-07 13:22 -16.87100 145.74595 5 ft 4 kts 202°
2026-05-07 13:22 -16.87117 145.74598 5 ft 0 kts 158°
2026-05-07 13:22 -16.87159 145.74615 5 ft 30 kts 157°
2026-05-07 13:22 -16.87606 145.74818 27 ft 107 kts 156°
2026-05-07 13:23 -16.88502 145.75225 30 ft 171 kts 156°
2026-05-07 13:23 -16.89665 145.75739 595 ft 185 kts 157°
2026-05-07 13:23 -16.90722 145.76495 1434 ft 187 kts 127°
2026-05-07 13:23 -16.91135 145.77763 2270 ft 188 kts 90°
2026-05-07 13:24 -16.90686 145.79053 2912 ft 199 kts 54°
2026-05-07 13:24 -16.89494 145.79834 3551 ft 212 kts 17°
2026-05-07 13:24 -16.87989 145.79900 4170 ft 223 kts
2026-05-07 13:24 -16.86394 145.79730 4651 ft 239 kts 357°
2026-05-07 13:25 -16.84689 145.79501 5085 ft 254 kts 356°
2026-05-07 13:25 -16.82874 145.79252 5467 ft 272 kts 356°
2026-05-07 13:25 -16.81598 145.79087 5754 ft 284 kts 356°
2026-05-07 13:25 -16.79599 145.78738 6298 ft 298 kts 342°
2026-05-07 13:26 -16.77759 145.77721 7105 ft 300 kts 326°
2026-05-07 13:26 -16.76073 145.76456 8005 ft 297 kts 324°
2026-05-07 13:26 -16.74401 145.75178 8781 ft 299 kts 325°
2026-05-07 13:26 -16.72694 145.73920 9462 ft 303 kts 326°
2026-05-07 13:27 -16.70908 145.72649 9867 ft 318 kts 326°
2026-05-07 13:27 -16.69019 145.71336 10145 ft 334 kts 327°
2026-05-07 13:27 -16.67027 145.69971 10416 ft 350 kts 327°
2026-05-07 13:27 -16.64939 145.68551 10677 ft 366 kts 327°
2026-05-07 13:28 -16.62768 145.67081 11103 ft 375 kts 327°
2026-05-07 13:28 -16.60597 145.65614 11942 ft 370 kts 327°
2026-05-07 13:28 -16.58453 145.64167 12820 ft 367 kts 327°
2026-05-07 13:28 -16.56301 145.62717 13513 ft 369 kts 327°
2026-05-07 13:29 -16.54140 145.61260 14119 ft 372 kts 327°
2026-05-07 13:29 -16.51965 145.59793 14779 ft 372 kts 327°
2026-05-07 13:29 -16.49785 145.58325 15380 ft 374 kts 327°
2026-05-07 13:29 -16.47590 145.56848 15949 ft 377 kts 327°
2026-05-07 13:30 -16.45383 145.55364 16583 ft 378 kts 327°
2026-05-07 13:30 -16.43162 145.53871 17151 ft 381 kts 327°
2026-05-07 13:30 -16.40925 145.52366 17704 ft 384 kts 327°
2026-05-07 13:30 -16.38670 145.50850 18272 ft 387 kts 327°
2026-05-07 13:31 -16.36421 145.49338 18738 ft 390 kts 327°
2026-05-07 13:31 -16.34132 145.47801 19221 ft 392 kts 327°
2026-05-07 13:31 -16.31832 145.46257 19704 ft 395 kts 327°
2026-05-07 13:31 -16.29511 145.44700 20193 ft 397 kts 327°
2026-05-07 13:32 -16.27181 145.43137 20662 ft 399 kts 327°
2026-05-07 13:32 -16.24836 145.41564 21129 ft 402 kts 326°
2026-05-07 13:32 -16.22480 145.39985 21598 ft 404 kts 326°
2026-05-07 13:32 -16.20105 145.38392 22035 ft 407 kts 326°
2026-05-07 13:33 -16.17710 145.36789 22462 ft 410 kts 326°
2026-05-07 13:33 -16.15327 145.35191 22882 ft 413 kts 326°
2026-05-07 13:33 -16.12899 145.33569 23291 ft 416 kts 327°
2026-05-07 13:33 -16.10404 145.32023 23695 ft 418 kts 329°
2026-05-07 13:34 -16.07840 145.30558 24042 ft 420 kts 330°
2026-05-07 13:34 -16.02682 145.27632 24775 ft 423 kts 330°
2026-05-07 13:34 -16.00091 145.26165 25154 ft 425 kts 330°
2026-05-07 13:35 -15.97492 145.24696 25531 ft 426 kts 329°
2026-05-07 13:35 -15.94885 145.23223 25928 ft 427 kts 329°
2026-05-07 13:35 -15.92266 145.21742 26285 ft 429 kts 329°
2026-05-07 13:35 -15.89637 145.20258 26634 ft 430 kts 329°
2026-05-07 13:36 -15.87000 145.18769 26982 ft 432 kts 329°
2026-05-07 13:36 -15.84353 145.17274 27286 ft 435 kts 329°
2026-05-07 13:36 -15.81678 145.15764 27612 ft 437 kts 329°
2026-05-07 13:36 -15.79036 145.14274 27954 ft 439 kts 329°
2026-05-07 13:37 -15.76348 145.12758 28296 ft 440 kts 329°
2026-05-07 13:37 -15.73651 145.11239 28611 ft 442 kts 329°
2026-05-07 13:37 -15.70944 145.09713 28936 ft 443 kts 329°
2026-05-07 13:37 -15.68227 145.08183 29237 ft 445 kts 329°
2026-05-07 13:38 -15.65500 145.06647 29560 ft 447 kts 329°
2026-05-07 13:38 -15.62756 145.05102 29875 ft 449 kts 329°
2026-05-07 13:38 -15.60006 145.03554 30148 ft 450 kts 328°
2026-05-07 13:38 -15.57248 145.02002 30415 ft 452 kts 328°
2026-05-07 13:39 -15.54478 145.00444 30669 ft 454 kts 328°
2026-05-07 13:39 -15.51699 144.98881 30914 ft 456 kts 328°
2026-05-07 13:39 -15.48872 144.97291 31157 ft 457 kts 328°
2026-05-07 13:39 -15.46114 144.95742 31477 ft 457 kts 328°
2026-05-07 13:40 -15.43286 144.94154 31814 ft 456 kts 328°
2026-05-07 13:40 -15.40491 144.92586 31997 ft 457 kts 328°
2026-05-07 13:40 -15.37724 144.91031 31995 ft 458 kts 328°
2026-05-07 13:41 -15.32118 144.87885 32003 ft 458 kts 328°
2026-05-07 13:41 -15.26514 144.84743 32004 ft 458 kts 328°
2026-05-07 13:42 -15.20912 144.81603 31997 ft 458 kts 328°
2026-05-07 13:42 -15.15295 144.78458 31997 ft 459 kts 328°
2026-05-07 13:43 -15.09670 144.75310 31996 ft 459 kts 328°
2026-05-07 13:43 -15.04052 144.72167 31998 ft 459 kts 328°
2026-05-07 13:44 -14.98430 144.69025 31993 ft 459 kts 328°
2026-05-07 13:44 -14.92808 144.65885 31992 ft 459 kts 328°
2026-05-07 13:45 -14.87187 144.62748 31992 ft 459 kts 328°
2026-05-07 13:45 -14.81566 144.59613 31992 ft 459 kts 328°
2026-05-07 13:46 -14.75942 144.56479 31991 ft 459 kts 328°
2026-05-07 13:46 -14.70362 144.53373 31989 ft 459 kts 329°
2026-05-07 13:47 -14.64734 144.50240 31989 ft 459 kts 328°
2026-05-07 13:47 -14.59116 144.47108 31979 ft 459 kts 329°
2026-05-07 13:48 -14.53492 144.43978 31986 ft 460 kts 329°
2026-05-07 13:48 -14.47851 144.40844 31985 ft 460 kts 329°
2026-05-07 13:49 -14.42205 144.37711 31983 ft 460 kts 329°
2026-05-07 13:49 -14.36564 144.34583 31983 ft 460 kts 329°
2026-05-07 13:50 -14.30917 144.31454 31982 ft 460 kts 329°
2026-05-07 13:50 -14.25278 144.28329 31973 ft 461 kts 329°
2026-05-07 13:51 -14.19614 144.25193 31974 ft 462 kts 329°
2026-05-07 13:51 -14.13948 144.22059 31974 ft 462 kts 329°
2026-05-07 13:52 -14.08316 144.18946 31979 ft 462 kts 329°
2026-05-07 13:52 -14.02649 144.15815 31978 ft 462 kts 329°
2026-05-07 13:53 -13.96983 144.12686 31975 ft 462 kts 329°
2026-05-07 13:53 -13.91310 144.09552 31975 ft 463 kts 329°
2026-05-07 13:54 -13.85638 144.06423 31976 ft 463 kts 329°
2026-05-07 13:54 -13.79947 144.03287 31975 ft 463 kts 329°
2026-05-07 13:55 -13.74271 144.00159 31974 ft 463 kts 329°
2026-05-07 13:55 -13.68611 143.97042 31972 ft 463 kts 329°
2026-05-07 13:56 -13.62936 143.93919 31966 ft 463 kts 329°
2026-05-07 13:56 -13.57243 143.90785 31970 ft 464 kts 329°
2026-05-07 13:57 -13.51551 143.87656 31974 ft 464 kts 329°
2026-05-07 13:57 -13.45864 143.84532 31974 ft 464 kts 329°
2026-05-07 13:58 -13.40203 143.81423 31969 ft 464 kts 329°
2026-05-07 13:58 -13.34514 143.78300 31971 ft 464 kts 329°
2026-05-07 13:59 -13.28816 143.75172 31965 ft 464 kts 330°
2026-05-07 13:59 -13.23102 143.72039 31969 ft 466 kts 330°
2026-05-07 14:00 -13.17382 143.68906 31967 ft 466 kts 330°
2026-05-07 14:00 -13.11657 143.65771 31969 ft 466 kts 330°
2026-05-07 14:01 -13.05937 143.62640 31971 ft 466 kts 330°
2026-05-07 14:01 -13.00215 143.59510 31967 ft 466 kts 330°
2026-05-07 14:02 -12.94487 143.56375 31965 ft 467 kts 330°
2026-05-07 14:02 -12.88753 143.53244 31966 ft 467 kts 330°
2026-05-07 14:03 -12.83013 143.50113 31966 ft 467 kts 330°
2026-05-07 14:03 -12.77270 143.46981 31959 ft 467 kts 330°
2026-05-07 14:04 -12.71519 143.43844 31965 ft 467 kts 330°
2026-05-07 14:04 -12.65812 143.40727 31958 ft 468 kts 330°
2026-05-07 14:05 -12.60060 143.37588 31964 ft 468 kts 330°
2026-05-07 14:05 -12.54302 143.34456 31964 ft 468 kts 330°
2026-05-07 14:06 -12.48541 143.31324 31962 ft 468 kts 330°
2026-05-07 14:06 -12.42776 143.28190 31961 ft 468 kts 330°
2026-05-07 14:07 -12.37050 143.25080 31962 ft 468 kts 330°
2026-05-07 14:07 -12.31287 143.21950 31956 ft 469 kts 330°
2026-05-07 14:08 -12.25513 143.18818 31957 ft 470 kts 330°
2026-05-07 14:08 -12.19734 143.15684 31956 ft 470 kts 330°
2026-05-07 14:09 -12.13959 143.12554 31956 ft 470 kts 330°
2026-05-07 14:09 -12.08175 143.09420 31955 ft 470 kts 330°
2026-05-07 14:10 -12.03373 143.06820 31954 ft 470 kts 330°
2026-05-07 14:10 -11.96647 143.03178 31952 ft 471 kts 331°
2026-05-07 14:11 -11.91788 143.00550 31953 ft 471 kts 331°
2026-05-07 14:11 -11.86032 142.97437 31953 ft 471 kts 331°
2026-05-07 14:12 -11.80236 142.94305 31956 ft 471 kts 331°
2026-05-07 14:12 -11.74430 142.91168 31953 ft 471 kts 331°
2026-05-07 14:13 -11.68636 142.88040 31954 ft 471 kts 331°
2026-05-07 14:13 -11.62832 142.84907 31953 ft 471 kts 331°
2026-05-07 14:14 -11.57037 142.81781 31952 ft 471 kts 331°
2026-05-07 14:14 -11.51273 142.78673 31947 ft 471 kts 331°
2026-05-07 14:15 -11.45470 142.75545 31948 ft 471 kts 331°
2026-05-07 14:15 -11.39672 142.72422 31947 ft 471 kts 331°
2026-05-07 14:16 -11.33866 142.69294 31947 ft 473 kts 331°
2026-05-07 14:16 -11.28077 142.66179 31941 ft 473 kts 331°
2026-05-07 14:17 -11.22214 142.63026 31940 ft 473 kts 331°
2026-05-07 14:17 -11.16425 142.59914 31945 ft 473 kts 331°
2026-05-07 14:18 -11.10594 142.56780 31948 ft 473 kts 331°
2026-05-07 14:18 -11.04766 142.53649 31946 ft 474 kts 331°
2026-05-07 14:19 -10.98917 142.50508 31937 ft 475 kts 331°
2026-05-07 14:19 -10.93060 142.47366 31941 ft 475 kts 331°
2026-05-07 14:20 -10.87209 142.44229 31945 ft 475 kts 331°
2026-05-07 14:20 -10.81368 142.41098 31946 ft 475 kts 331°
2026-05-07 14:21 -10.75544 142.37979 31947 ft 475 kts 331°
2026-05-07 14:21 -10.69685 142.34842 31946 ft 477 kts 331°
2026-05-07 14:22 -10.63843 142.31624 31948 ft 477 kts 329°
2026-05-07 14:22 -10.58302 142.27916 31945 ft 476 kts 323°
2026-05-07 14:23 -10.53152 142.23676 31942 ft 476 kts 318°
2026-05-07 14:23 -10.48255 142.19212 31939 ft 475 kts 318°
2026-05-07 14:24 -10.43333 142.14716 31933 ft 475 kts 318°
2026-05-07 14:24 -10.38398 142.10208 31936 ft 477 kts 318°
2026-05-07 14:25 -10.33445 142.05689 31937 ft 478 kts 318°
2026-05-07 14:25 -10.28497 142.01178 31937 ft 477 kts 318°
2026-05-07 14:26 -10.23554 141.96672 31931 ft 477 kts 318°
2026-05-07 14:26 -10.18611 141.92168 31931 ft 477 kts 318°
2026-05-07 14:27 -10.13667 141.87665 31937 ft 477 kts 318°
2026-05-07 14:27 -10.08757 141.83194 31936 ft 478 kts 318°
2026-05-07 14:28 -10.03795 141.78679 31935 ft 478 kts 318°
2026-05-07 14:28 -9.98846 141.74178 31936 ft 478 kts 318°
2026-05-07 14:29 -9.93888 141.69670 31929 ft 478 kts 318°
2026-05-07 14:29 -9.88939 141.65172 31931 ft 477 kts 318°
2026-05-07 14:30 -9.83986 141.60673 31930 ft 477 kts 318°
2026-05-07 14:30 -9.79032 141.56174 31934 ft 477 kts 318°
2026-05-07 14:31 -9.74109 141.51705 31933 ft 478 kts 318°
2026-05-07 14:31 -9.69147 141.47203 31933 ft 479 kts 318°
2026-05-07 14:32 -9.64179 141.42698 31928 ft 479 kts 318°
2026-05-07 14:32 -9.59208 141.38192 31928 ft 479 kts 318°
2026-05-07 14:33 -9.54240 141.33690 31932 ft 478 kts 318°
2026-05-07 14:33 -9.49278 141.29196 31931 ft 478 kts 318°
2026-05-07 14:34 -9.44312 141.24699 31927 ft 478 kts 318°
2026-05-07 14:34 -9.39335 141.20194 31929 ft 480 kts 318°
2026-05-07 14:35 -9.34346 141.15681 31935 ft 481 kts 318°
2026-05-07 14:35 -9.29349 141.11162 31927 ft 481 kts 318°
2026-05-07 14:36 -9.24358 141.06651 31930 ft 480 kts 318°
2026-05-07 14:36 -9.19371 141.02145 31931 ft 480 kts 318°
2026-05-07 14:37 -9.14386 140.97642 31931 ft 480 kts 318°
2026-05-07 14:37 -9.06922 140.90903 31925 ft 482 kts 318°
2026-05-07 14:38 -9.01914 140.86385 31929 ft 482 kts 318°
2026-05-07 14:38 -8.96904 140.81867 31923 ft 482 kts 318°
2026-05-07 14:39 -8.91891 140.77347 31932 ft 482 kts 318°
2026-05-07 14:39 -8.86872 140.72824 31927 ft 482 kts 318°
2026-05-07 14:40 -8.81857 140.68307 31927 ft 482 kts 318°
2026-05-07 14:40 -8.76871 140.63817 31922 ft 483 kts 318°
2026-05-07 14:41 -8.71842 140.59293 31924 ft 484 kts 318°
2026-05-07 14:41 -8.66798 140.54757 31939 ft 484 kts 318°
2026-05-07 14:42 -8.61758 140.50226 31923 ft 484 kts 318°
2026-05-07 14:42 -8.56397 140.46110 31921 ft 484 kts 328°
2026-05-07 14:43 -8.50346 140.43112 31936 ft 484 kts 339°
2026-05-07 14:43 -8.43839 140.41347 31922 ft 485 kts 350°
2026-05-07 14:44 -8.37146 140.40710 31923 ft 486 kts 355°
2026-05-07 14:44 -8.30385 140.40298 31937 ft 486 kts 355°
2026-05-07 14:45 -8.23630 140.39887 31925 ft 486 kts 355°
2026-05-07 14:45 -8.16860 140.39468 31919 ft 487 kts 355°
2026-05-07 14:46 -8.10097 140.39045 31916 ft 487 kts 356°
2026-05-07 14:46 -8.03327 140.38622 31930 ft 487 kts 356°
2026-05-07 14:47 -7.96564 140.38199 31921 ft 487 kts 356°
2026-05-07 14:47 -7.89802 140.37776 31912 ft 487 kts 356°
2026-05-07 14:48 -7.83034 140.37351 31915 ft 487 kts 356°
2026-05-07 14:48 -7.76298 140.36930 31922 ft 488 kts 356°
2026-05-07 14:49 -7.69527 140.36507 31920 ft 488 kts 356°
2026-05-07 14:49 -7.62752 140.36084 31916 ft 488 kts 356°
2026-05-07 14:50 -7.55981 140.35660 31924 ft 488 kts 356°
2026-05-07 14:50 -7.49208 140.35237 31924 ft 488 kts 356°
2026-05-07 14:51 -7.42429 140.34814 31923 ft 488 kts 356°
2026-05-07 14:51 -7.35660 140.34392 31917 ft 488 kts 356°
2026-05-07 14:52 -7.28887 140.33969 31917 ft 488 kts 356°
2026-05-07 14:52 -7.22097 140.33544 31920 ft 489 kts 356°
2026-05-07 14:53 -7.15309 140.33122 31922 ft 489 kts 356°
2026-05-07 14:53 -7.08517 140.32699 31910 ft 489 kts 356°
2026-05-07 14:54 -7.01727 140.32276 31917 ft 489 kts 356°
2026-05-07 14:54 -6.94978 140.31853 31916 ft 489 kts 356°
2026-05-07 14:55 -6.88198 140.31432 31912 ft 489 kts 356°
2026-05-07 14:55 -6.81396 140.31009 31916 ft 489 kts 356°
2026-05-07 14:56 -6.74603 140.30586 31917 ft 489 kts 356°
2026-05-07 14:56 -6.68957 140.30233 31918 ft 489 kts 356°
2026-05-07 14:57 -6.62168 140.29811 31917 ft 489 kts 356°
2026-05-07 14:57 -6.55353 140.29388 31915 ft 489 kts 356°
2026-05-07 14:58 -6.48556 140.28966 31906 ft 489 kts 356°
2026-05-07 14:58 -6.41800 140.28546 31901 ft 489 kts 356°
2026-05-07 14:59 -6.35019 140.28125 31918 ft 488 kts 356°
2026-05-07 14:59 -6.28242 140.27706 31917 ft 488 kts 356°
2026-05-07 15:00 -6.21470 140.27286 31908 ft 488 kts 357°
2026-05-07 15:00 -6.14681 140.27195 31916 ft 488 kts
2026-05-07 15:01 -6.07917 140.27792 31918 ft 488 kts
2026-05-07 15:01 -6.01242 140.29078 31904 ft 489 kts 13°
2026-05-07 15:02 -5.94635 140.30702 31917 ft 489 kts 14°
2026-05-07 15:02 -5.88027 140.32337 31917 ft 489 kts 14°
2026-05-07 15:03 -5.81416 140.33968 31914 ft 488 kts 14°
2026-05-07 15:03 -5.74820 140.35593 31904 ft 488 kts 14°
2026-05-07 15:04 -5.68217 140.37220 31907 ft 488 kts 14°
2026-05-07 15:04 -5.61622 140.38844 31917 ft 488 kts 14°
2026-05-07 15:05 -5.55067 140.40458 31908 ft 488 kts 14°
2026-05-07 15:05 -5.48477 140.42080 31919 ft 488 kts 14°
2026-05-07 15:06 -5.41859 140.43709 31920 ft 488 kts 13°
2026-05-07 15:06 -5.35270 140.45329 31913 ft 488 kts 13°
2026-05-07 15:07 -5.28676 140.46951 31925 ft 488 kts 13°
2026-05-07 15:07 -5.22132 140.48559 31620 ft 476 kts 14°
2026-05-07 15:08 -5.18935 140.49345 31387 ft 472 kts 14°
2026-05-07 15:08 -5.15780 140.50121 31179 ft 472 kts 14°
2026-05-07 15:08 -5.12587 140.50906 30944 ft 473 kts 14°
2026-05-07 15:08 -5.09386 140.51693 30721 ft 474 kts 14°
2026-05-07 15:09 -5.06184 140.52480 30489 ft 474 kts 14°
2026-05-07 15:09 -5.02981 140.53268 30286 ft 473 kts 14°
2026-05-07 15:09 -4.99797 140.54050 30061 ft 471 kts 14°
2026-05-07 15:09 -4.96612 140.54832 29803 ft 470 kts 14°
2026-05-07 15:10 -4.93444 140.55611 29552 ft 468 kts 14°
2026-05-07 15:10 -4.90285 140.56381 29284 ft 466 kts 13°
2026-05-07 15:10 -4.87107 140.57006 29023 ft 465 kts
2026-05-07 15:10 -4.83901 140.57429 28765 ft 463 kts
2026-05-07 15:11 -4.80691 140.57648 28512 ft 462 kts
2026-05-07 15:11 -4.77479 140.57669 28254 ft 460 kts 359°
2026-05-07 15:11 -4.74285 140.57609 28008 ft 459 kts 359°
2026-05-07 15:11 -4.71097 140.57539 27755 ft 457 kts 359°
2026-05-07 15:12 -4.67916 140.57467 27511 ft 456 kts 359°
2026-05-07 15:12 -4.64752 140.57397 27263 ft 454 kts 359°
2026-05-07 15:12 -4.61594 140.57329 27027 ft 453 kts 359°
2026-05-07 15:12 -4.58447 140.57263 26758 ft 451 kts 359°
2026-05-07 15:13 -4.55311 140.57197 26517 ft 450 kts 359°
2026-05-07 15:13 -4.52192 140.57132 26283 ft 449 kts 359°
2026-05-07 15:13 -4.49073 140.57066 26048 ft 447 kts 359°
2026-05-07 15:13 -4.46006 140.57002 25785 ft 446 kts 359°
2026-05-07 15:14 -4.42904 140.56938 25551 ft 444 kts 359°
2026-05-07 15:14 -4.39817 140.56873 25323 ft 443 kts 359°
2026-05-07 15:14 -4.36735 140.56809 25097 ft 442 kts 359°
2026-05-07 15:14 -4.33665 140.56745 24841 ft 441 kts 359°
2026-05-07 15:15 -4.30598 140.56682 24619 ft 440 kts 359°
2026-05-07 15:15 -4.27542 140.56618 24400 ft 439 kts 359°
2026-05-07 15:15 -4.24495 140.56541 24174 ft 437 kts 358°
2026-05-07 15:15 -4.21459 140.56432 23924 ft 436 kts 358°
2026-05-07 15:16 -4.18386 140.56313 23709 ft 435 kts 358°
2026-05-07 15:16 -4.15367 140.56196 23488 ft 434 kts 358°
2026-05-07 15:16 -4.12351 140.56080 23229 ft 433 kts 358°
2026-05-07 15:16 -4.09349 140.55966 22960 ft 431 kts 358°
2026-05-07 15:17 -4.06394 140.55855 22708 ft 430 kts 358°
2026-05-07 15:17 -4.03411 140.55744 22457 ft 428 kts 358°
2026-05-07 15:17 -4.00436 140.55634 22194 ft 427 kts 358°
2026-05-07 15:17 -3.97469 140.55525 21923 ft 425 kts 358°
2026-05-07 15:18 -3.94520 140.55416 21573 ft 423 kts 358°
2026-05-07 15:18 -3.91589 140.55308 21189 ft 420 kts 358°
2026-05-07 15:18 -3.88674 140.55200 20789 ft 417 kts 358°
2026-05-07 15:18 -3.85781 140.55094 20390 ft 414 kts 358°
2026-05-07 15:19 -3.82904 140.54987 19991 ft 411 kts 358°
2026-05-07 15:19 -3.80052 140.54882 19588 ft 408 kts 358°
2026-05-07 15:19 -3.77224 140.54778 19187 ft 405 kts 358°
2026-05-07 15:19 -3.74419 140.54675 18796 ft 402 kts 358°
2026-05-07 15:20 -3.71629 140.54572 18390 ft 400 kts 358°
2026-05-07 15:20 -3.68856 140.54471 17964 ft 398 kts 358°
2026-05-07 15:20 -3.66130 140.54370 17535 ft 395 kts 358°
2026-05-07 15:20 -3.63356 140.54267 17122 ft 392 kts 358°
2026-05-07 15:21 -3.60645 140.54167 16723 ft 389 kts 358°
2026-05-07 15:21 -3.57986 140.54069 16336 ft 386 kts 358°
2026-05-07 15:21 -3.55314 140.53970 15950 ft 383 kts 358°
2026-05-07 15:21 -3.52660 140.53872 15556 ft 380 kts 358°
2026-05-07 15:22 -3.50019 140.53775 15175 ft 378 kts 358°
2026-05-07 15:22 -3.47402 140.53678 14790 ft 376 kts 358°
2026-05-07 15:22 -3.44792 140.53582 14407 ft 374 kts 358°
2026-05-07 15:22 -3.42203 140.53488 14025 ft 372 kts 358°
2026-05-07 15:23 -3.39627 140.53393 13631 ft 370 kts 358°
2026-05-07 15:23 -3.37061 140.53299 13215 ft 368 kts 358°
2026-05-07 15:23 -3.34517 140.53205 12815 ft 365 kts 358°
2026-05-07 15:23 -3.31988 140.53112 12441 ft 362 kts 358°
2026-05-07 15:24 -3.29457 140.53020 12054 ft 359 kts 358°
2026-05-07 15:24 -3.26968 140.52928 11681 ft 356 kts 358°
2026-05-07 15:24 -3.24492 140.52837 11304 ft 354 kts 358°
2026-05-07 15:24 -3.22040 140.52748 10929 ft 352 kts 358°
2026-05-07 15:25 -3.19600 140.52659 10551 ft 350 kts 358°
2026-05-07 15:25 -3.17195 140.52570 10375 ft 339 kts 358°
2026-05-07 15:25 -3.14871 140.52484 10291 ft 326 kts 358°
2026-05-07 15:25 -3.12643 140.52402 10203 ft 314 kts 358°
2026-05-07 15:26 -3.10505 140.52323 10113 ft 302 kts 358°
2026-05-07 15:26 -3.08444 140.52260 10003 ft 292 kts
2026-05-07 15:26 -3.06482 140.52708 9586 ft 292 kts 25°
2026-05-07 15:26 -3.04671 140.53649 9128 ft 294 kts 30°
2026-05-07 15:27 -3.02880 140.54661 8723 ft 295 kts 30°
2026-05-07 15:27 -3.01088 140.55646 8399 ft 293 kts 29°
2026-05-07 15:27 -2.99298 140.56596 8082 ft 290 kts 28°
2026-05-07 15:27 -2.97512 140.57521 7788 ft 287 kts 28°
2026-05-07 15:28 -2.95760 140.58413 7623 ft 279 kts 27°
2026-05-07 15:28 -2.94051 140.59275 7454 ft 270 kts 27°
2026-05-07 15:28 -2.92415 140.60097 7307 ft 263 kts 27°
2026-05-07 15:28 -2.90800 140.60905 7095 ft 257 kts 27°
2026-05-07 15:29 -2.89202 140.61704 6814 ft 256 kts 27°
2026-05-07 15:29 -2.87610 140.62500 6518 ft 255 kts 27°
2026-05-07 15:29 -2.86030 140.63289 6316 ft 254 kts 27°
2026-05-07 15:29 -2.84456 140.64075 6121 ft 254 kts 27°
2026-05-07 15:30 -2.82876 140.64864 5927 ft 253 kts 27°
2026-05-07 15:30 -2.81302 140.65650 5722 ft 252 kts 27°
2026-05-07 15:30 -2.79739 140.66430 5564 ft 251 kts 27°
2026-05-07 15:30 -2.78176 140.67210 5443 ft 251 kts 27°
2026-05-07 15:31 -2.76618 140.67988 5324 ft 250 kts 27°
2026-05-07 15:31 -2.75072 140.68759 5115 ft 247 kts 27°
2026-05-07 15:31 -2.73530 140.69528 4811 ft 247 kts 27°
2026-05-07 15:31 -2.71991 140.70296 4516 ft 246 kts 27°
2026-05-07 15:32 -2.70564 140.71219 4178 ft 245 kts 51°
2026-05-07 15:32 -2.69890 140.72738 3993 ft 240 kts 85°
2026-05-07 15:32 -2.70104 140.74388 3995 ft 242 kts 114°
2026-05-07 15:32 -2.71014 140.75801 4001 ft 242 kts 128°
2026-05-07 15:33 -2.72060 140.77091 4000 ft 242 kts 137°
2026-05-07 15:33 -2.73524 140.77921 3986 ft 242 kts 168°
2026-05-07 15:33 -2.75166 140.77885 3987 ft 242 kts 198°
2026-05-07 15:33 -2.76596 140.77021 3990 ft 243 kts 228°
2026-05-07 15:34 -2.77401 140.75553 3990 ft 244 kts 258°
2026-05-07 15:34 -2.77351 140.73870 3991 ft 244 kts 289°
2026-05-07 15:34 -2.76453 140.72447 3996 ft 245 kts 320°
2026-05-07 15:34 -2.74957 140.71674 3995 ft 245 kts 347°
2026-05-07 15:35 -2.73305 140.71274 3997 ft 244 kts 339°
2026-05-07 15:35 -2.71885 140.70367 3980 ft 244 kts 309°
2026-05-07 15:35 -2.71175 140.68851 3975 ft 244 kts 275°
2026-05-07 15:35 -2.71413 140.67191 3984 ft 243 kts 243°
2026-05-07 15:36 -2.72492 140.65917 3993 ft 242 kts 211°
2026-05-07 15:36 -2.74070 140.65389 3991 ft 242 kts 180°
2026-05-07 15:36 -2.75698 140.65744 3992 ft 242 kts 150°
2026-05-07 15:36 -2.76933 140.66859 4002 ft 241 kts 128°
2026-05-07 15:37 -2.77934 140.68214 4000 ft 242 kts 126°
2026-05-07 15:37 -2.78924 140.69577 3995 ft 241 kts 126°
2026-05-07 15:37 -2.79923 140.70936 3994 ft 241 kts 127°
2026-05-07 15:37 -2.80904 140.72271 3991 ft 241 kts 123°
2026-05-07 15:38 -2.81469 140.73834 3971 ft 242 kts 91°
2026-05-07 15:38 -2.81128 140.75470 3988 ft 243 kts 61°
2026-05-07 15:38 -2.80001 140.76706 3988 ft 243 kts 30°
2026-05-07 15:38 -2.78395 140.77193 3988 ft 244 kts 359°
2026-05-07 15:39 -2.76764 140.76796 3995 ft 244 kts 329°
2026-05-07 15:39 -2.75518 140.75649 4003 ft 244 kts 309°
2026-05-07 15:39 -2.74821 140.74763 4003 ft 244 kts 307°
2026-05-07 15:39 -2.73815 140.73408 3984 ft 237 kts 306°
2026-05-07 15:40 -2.72853 140.72091 3983 ft 232 kts 306°
2026-05-07 15:40 -2.71925 140.70826 3990 ft 220 kts 306°
2026-05-07 15:40 -2.71047 140.69636 3997 ft 205 kts 306°
2026-05-07 15:40 -2.69937 140.68137 3767 ft 201 kts 307°
2026-05-07 15:41 -2.69374 140.67378 3598 ft 200 kts 307°
2026-05-07 15:41 -2.68545 140.66262 3344 ft 199 kts 307°
2026-05-07 15:41 -2.67734 140.65169 3094 ft 198 kts 307°
2026-05-07 15:41 -2.66915 140.64066 2835 ft 196 kts 307°
2026-05-07 15:42 -2.66112 140.62984 2592 ft 190 kts 307°
2026-05-07 15:42 -2.65343 140.61948 2344 ft 179 kts 307°
2026-05-07 15:42 -2.64624 140.60978 2097 ft 168 kts 307°
2026-05-07 15:42 -2.63931 140.60044 1915 ft 166 kts 307°
2026-05-07 15:43 -2.63234 140.59121 1732 ft 166 kts 307°
2026-05-07 15:43 -2.62539 140.58200 1551 ft 166 kts 306°
2026-05-07 15:43 -2.61863 140.57270 1357 ft 165 kts 306°
2026-05-07 15:43 -2.61180 140.56331 1154 ft 164 kts 306°
2026-05-07 15:44 -2.60501 140.55412 915 ft 163 kts 306°
2026-05-07 15:44 -2.59832 140.54493 686 ft 162 kts 306°
2026-05-07 15:44 -2.59158 140.53592 485 ft 162 kts 307°
2026-05-07 15:44 -2.58484 140.52698 315 ft 158 kts 307°
2026-05-07 15:45 -2.57904 140.51922 311 ft 113 kts 307°
2026-05-07 15:45 -2.57555 140.51454 308 ft 62 kts 307°
2026-05-07 15:45 -2.57345 140.51173 311 ft 41 kts 307°
2026-05-07 15:45 -2.57219 140.51004 312 ft 22 kts 307°
2026-05-07 15:46 -2.57089 140.50897 310 ft 11 kts 25°
2026-05-07 15:46 -2.57024 140.50941 310 ft 10 kts 34°
2026-05-07 15:46 -2.56971 140.50978 309 ft 10 kts 35°
2026-05-07 15:47 -2.56964 140.51014 309 ft 7 kts 113°
2026-05-07 15:47 -2.56997 140.51064 309 ft 10 kts 125°
2026-05-07 15:47 -2.57034 140.51109 309 ft 8 kts 149°
2026-05-07 15:47 -2.57098 140.51125 309 ft 11 kts 154°
2026-05-07 15:48 -2.57157 140.51186 311 ft 13 kts 126°
2026-05-07 15:48 -2.57212 140.51260 310 ft 11 kts 126°
2026-05-07 15:48 -2.57254 140.51317 309 ft 8 kts 127°
2026-05-07 15:48 -2.57264 140.51346 308 ft 5 kts 70°
2026-05-07 15:49 -2.57237 140.51378 308 ft 6 kts 38°
2026-05-07 15:49 -2.57225 140.51387 308 ft 0 kts 36°